カタログに戻る

STARLINK-30368

運用中通信VLEO
NORAD 57752·PAYLOAD·🇺🇸 United States

打ち上げ Sep 1, 2023 から Cape Canaveral Space Force Station

Loading…

次のパス (今後24時間)

TLE

最新Source: CelesTrak SupGP

元期: Sep 14, 2026, 22:05 UTC

1 57752C 23131W   26257.92062500 -.00021619  00000+0 -78302-3 0  2572
2 57752  43.0023 184.0065 0001300 270.6327  98.1608 15.27590281    18

AllMySatでSTARLINK-30368をリアルタイム追跡

Download on the App Store